This is the latest recevied weather packets stored in our database for station/object NR5ON-13. If no packets are shown the sender has not sent any weather packets the latest 10 day(s).
| Time | Temp. | Humidity | Pressure | Rain* | Wind** | Luminosity | Snow |
|---|---|---|---|---|---|---|---|
| 1777729131 | 3.89° C | 84% | 1025.7 hPa | 0 mm | - | - | - |
| 1777728836 | 3.89° C | 85% | 1025.7 hPa | 0 mm | - | - | - |
| 1777728522 | 3.33° C | 87% | 1025.7 hPa | 0 mm | - | - | - |
| 1777728227 | 3.33° C | 88% | 1025.7 hPa | 0 mm | - | - | - |
| 1777727933 | 3.33° C | 89% | 1025.7 hPa | 0 mm | - | - | - |
| 1777727623 | 3.33° C | 90% | 1025.7 hPa | 0 mm | - | - | - |
| 1777727329 | 2.78° C | 90% | 1025.6 hPa | 0 mm | - | - | - |
| 1777727034 | 2.78° C | 90% | 1025.5 hPa | 0 mm | - | - | - |
| 1777726719 | 2.78° C | 90% | 1025.4 hPa | 0 mm | - | - | - |
| 1777726425 | 2.22° C | 91% | 1025.4 hPa | 0 mm | - | - | - |
| 1777726131 | 2.22° C | 90% | 1025.3 hPa | 0 mm | - | - | - |
| 1777725820 | 2.22° C | 90% | 1025.4 hPa | 0 mm | - | - | - |
| 1777725526 | 2.22° C | 89% | 1025.2 hPa | 0 mm | - | - | - |
| 1777725232 | 2.22° C | 89% | 1025.1 hPa | 0 mm | - | - | - |
| 1777724918 | 2.22° C | 89% | 1025.1 hPa | 0 mm | - | - | - |
| 1777724627 | 2.22° C | 89% | 1025 hPa | 0 mm | - | - | - |
| 1777724336 | 2.78° C | 89% | 1025 hPa | 0 mm | - | - | - |
| 1777724022 | 2.78° C | 89% | 1025 hPa | 0 mm | - | - | - |
| 1777723727 | 2.78° C | 89% | 1025 hPa | 0 mm | - | - | - |
| 1777723415 | 2.78° C | 89% | 1025 hPa | 0 mm | - | - | - |
| 1777723123 | 2.78° C | 89% | 1025 hPa | 0 mm | - | - | - |
| 1777722832 | 2.78° C | 88% | 1025 hPa | 0 mm | - | - | - |
| 1777722537 | 2.78° C | 88% | 1025.1 hPa | 0 mm | - | - | - |
| 1777722221 | 3.33° C | 88% | 1025.2 hPa | 0 mm | - | - | - |
| 1777721926 | 3.33° C | 88% | 1025.2 hPa | 0 mm | - | - | - |
* Rain latest hour (hover to see other rain measurements)
** Current wind speed in m/s (hover to see current wind gust speed)